Location: Unspecified
(0.0000°N, 0.0000°E)
Time: 13:14:39
(UTC+00:00)

ISS - Pass Details

Date: 13 April 2021
Orbit: 418 x 422 km, 51.6° (Epoch: 16 April)

Event Time Altitude Azimuth Distance (km) Brightness Sun altitude
Rises 18:59:36 0° 309° (NW) 2,346 1.2 -14.6°
Reaches altitude 10° 19:01:50 10° 298° (WNW) 1,486 0.2 -15.1°
Maximum altitude 19:04:49 30° 234° (SW) 770 -2.0 -15.9°
Enters shadow 19:07:48 10° 171° (S) 1,490 -1.2 -16.6°
